Location: Azul
(36.7830°S, 59.8500°W)
Time: 18:34:54
(UTC-03:00)

BEESAT - Pass Details

Date: 25 October 2021
Orbit: 700 x 707 km, 98.6° (Epoch: 06 December)

Event Time Altitude Azimuth Distance (km) Brightness Sun altitude
Rises 21:15:03 0° 323° (NW) 3,094 ? -20.6°
Reaches altitude 10° 21:19:13 10° 287° (WNW) 2,191 ? -21.3°
Maximum altitude 21:20:30 11° 271° (W) 2,130 ? -21.5°
Drops below altitude 10° 21:21:47 10° 255° (WSW) 2,200 ? -21.7°
Sets 21:26:01 0° 219° (SW) 3,134 ? -22.4°
